Location: Peterborough
(44.3091°N, 78.3197°W)
Time: 05:15:07
(UTC-04:00)

Vanguard 3 - Pass Details

Date: 22 February 2024
Orbit: 510 x 3236 km, 33.3° (Epoch: 12 April)

Event Time Altitude Azimuth Distance (km) Brightness Sun altitude
Rises 17:50:45 0° 176° (S) 6,680 12.0 -0.7°
Reaches altitude 10° 17:59:18 10° 154° (SSE) 6,035 11.4 -2.2°
Maximum altitude 18:06:25 13° 132° (SE) 5,882 11.2 -3.4°
Drops below altitude 10° 18:13:33 10° 110° (ESE) 6,116 11.1 -4.7°
Enters shadow 18:19:02 - 95° (E) 6,539 11.1 -5.7°
Sets 18:22:09 0° 88° (E) 6,857 - -6.2°
